Temperature
14 14 13 13 13 12 12 12 12 11 11 11 11 11 11 11 11 11 11 11 12 12 12 12 12 12 13 13 13 13 13 13 13 14 15 15 15 16 16 16 16 16 16
15 14 14 13 13 13 12 12 12 12 11 11 11 11 11 11 11 11 11 11 11 12 12 12 12 12 12 12 13 13 13 13 13 14 14 15 15 15 15 15 16 16 16
15 14 14 14 13 13 13 12 12 12 12 11 11 11 11 11 11 11 11 11 11 11 11 12 12 12 12 12 12 13 13 13 13 13 14 14 14 15 15 15 15 15 15
15 15 14 14 14 13 13 13 12 12 12 12 11 11 11 11 11 11 11 11 11 11 11 11 11 11 12 12 12 12 12 12 13 13 13 14 14 14 14 15 15 15 15
15 15 15 14 14 14 13 13 13 13 12 12 12 11 11 11 11 11 11 11 11 11 11 11 11 11 11 11 12 12 12 12 12 13 13 13 14 14 14 14 14 15 15
16 16 15 15 15 14 14 14 13 13 13 12 12 12 12 11 11 11 11 11 11 11 11 11 11 11 11 11 11 12 12 12 12 12 13 13 13 14 14 14 14 14 14
16 16 16 15 15 15 14 14 14 13 13 13 12 12 12 12 11 11 11 11 11 11 11 11 11 11 11 11 12 12 12 12 12 12 12 13 13 13 13 13 13 14 14
17 16 16 16 15 15 15 15 14 14 14 13 13 12 12 12 12 11 11 11 11 11 11 11 11 11 11 11 12 12 12 12 12 12 12 13 13 13 13 13 13 13 13
17 16 16 16 16 15 15 15 14 14 14 14 13 13 13 12 12 12 11 11 11 11 11 11 11 11 11 11 11 12 12 12 12 12 12 12 13 13 13 13 13 13 13
17 17 16 16 16 15 15 15 15 14 14 14 14 13 13 13 12 12 12 12 12 12 11 11 11 11 11 11 11 11 12 12 12 12 12 12 12 13 13 12 13 12 12
17 16 16 16 16 15 15 15 15 14 14 14 14 14 13 13 13 12 12 12 12 12 11 11 11 11 11 11 11 11 11 12 12 12 12 12 12 12 12 12 12 12 12
17 16 16 16 16 15 15 15 15 15 14 14 14 14 14 13 13 13 12 12 12 12 12 11 11 11 11 11 11 11 11 11 11 12 12 12 12 12 12 12 12 12 12
16 16 16 16 15 15 15 15 15 15 14 14 14 14 14 14 13 13 13 12 12 12 12 11 11 11 11 11 11 11 11 11 11 11 12 12 12 12 12 12 12 12 12
16 16 16 15 15 15 15 14 14 14 14 14 14 14 14 14 14 13 13 13 12 12 12 12 11 11 11 11 11 11 11 11 11 11 11 11 12 12 12 12 12 12 11
16 15 15 15 14 14 14 14 13 13 13 13 13 13 13 14 14 13 13 13 12 12 12 12 12 11 11 11 11 11 11 11 11 11 11 11 11 11 11 11 11 11 11
15 14 14 13 13 13 13 13 13 13 13 13 13 13 13 13 13 13 13 13 12 12 12 12 11 11 11 11 11 11 11 11 11 11 11 11 11 11 11 11 11 11 11
14 13 13 12 12 12 12 12 12 12 12 12 12 13 13 13 13 13 13 13 12 12 12 11 11 11 11 11 11 11 11 11 11 11 11 11 11 11 11 11 11 11 11
12 12 11 11 11 11 11 11 11 11 11 11 12 12 12 12 13 13 13 12 12 12 11 11 11 11 11 11 11 11 11 11 11 11 11 11 11 11 11 11 11 11 11
11 10 10 10 10 9 9 9 10 10 10 10 11 11 11 11 12 12 12 12 11 11 11 11 10 10 10 10 10 10 10 10 10 10 10 11 11 11 11 11 11 11 11
10 9 9 9 9 8 8 8 8 8 9 9 9 9 10 10 11 10 10 10 10 10 10 10 10 10 10 10 10 10 10 10 10 10 10 10 10 10 10 10 10 10 11
9 8 8 8 8 7 7 7 7 7 7 7 7 7 8 8 8 8 8 8 8 8 8 9 9 9 9 9 10 10 9 9 10 10 10 10 10 10 10 10 10 10 10
8 7 7 7 7 7 7 7 7 6 6 6 6 6 7 7 7 7 7 7 7 7 7 7 7 7 8 8 8 8 8 9 9 9 9 9 10 10 10 10 10 10 10
7 7 7 6 6 6 6 6 6 6 6 5 6 6 6 6 5 5 5 5 5 6 6 6 6 6 6 6 7 7 7 7 7 8 8 9 9 9 9 10 10 10 10
7 6 6 6 6 6 5 5 5 5 5 5 5 5 5 4 4 4 4 4 4 5 5 5 5 5 5 5 5 5 5 6 6 7 7 7 8 8 9 9 9 10 10
6 6 6 6 5 5 5 5 5 4 4 4 4 4 4 4 4 4 4 4 4 4 4 4 4 4 4 4 4 4 4 5 5 5 6 6 7 7 8 8 9 9 9
6 6 5 5 5 5 5 4 4 4 4 4 4 3 3 3 3 3 3 3 3 3 3 3 3 3 3 3 3 3 4 4 4 4 5 5 6 6 6 7 7 8 8
Wind_Speed
5 4 3 3 3 2 2 2 2 3 3 3 4 4 4 4 4 4 3 4 4 4 4 4 4 4 3 4 4 4 5 5 7 5 3 3 4 4 4 6 10 11 14
6 4 3 3 1 2 2 2 2 2 3 3 3 3 4 4 4 3 4 4 4 5 5 5 5 4 3 3 3 4 4 5 6 6 4 4 5 5 5 6 6 9 10
6 5 3 2 2 3 3 2 2 2 3 3 3 4 4 4 4 4 3 4 4 4 5 5 5 4 4 3 3 4 4 4 5 5 5 3 3 3 4 5 5 5 7
6 5 4 4 4 4 3 2 2 2 3 4 4 4 4 4 4 4 4 4 5 5 5 5 5 5 5 5 4 4 4 4 4 4 4 4 3 3 3 4 4 5 6
6 6 6 6 5 4 3 3 3 3 4 4 4 5 5 5 4 4 4 4 5 6 6 6 6 6 7 5 4 4 4 4 4 4 5 4 3 3 4 4 5 4 5
7 7 7 6 5 5 5 4 3 4 4 4 4 5 5 5 7 7 5 4 5 5 7 7 7 6 7 7 8 7 5 5 5 5 5 6 6 5 4 4 5 4 4
7 7 7 7 6 6 5 4 5 5 4 5 5 5 6 8 10 9 7 4 4 5 6 6 6 5 6 4 7 7 7 8 8 6 7 8 6 6 6 6 6 5 5
7 7 7 7 7 6 5 6 6 5 5 5 6 6 6 8 10 9 8 4 4 5 5 5 5 6 6 6 5 5 5 6 6 6 7 8 7 7 7 7 6 4 2
7 7 8 8 7 7 7 7 6 5 6 6 6 6 7 9 10 9 7 3 4 6 6 5 5 5 9 8 5 6 7 6 7 8 9 9 10 10 8 5 5 5 4
7 7 7 7 7 8 8 8 6 5 7 6 7 7 7 8 10 10 7 3 4 5 5 5 7 7 9 8 5 5 7 7 6 6 6 6 6 7 9 9 7 7 4
5 4 4 5 7 8 7 6 6 6 6 6 7 7 7 8 10 10 8 4 4 4 4 4 5 10 11 11 8 6 9 8 6 6 6 5 4 4 5 6 6 7 6
1 1 2 3 4 4 5 6 6 6 6 7 6 7 6 6 8 9 10 9 7 4 5 5 6 10 12 12 8 8 10 8 5 5 5 4 4 4 5 5 6 6 6
1 1 3 3 3 3 4 5 5 4 5 6 5 6 7 5 6 10 10 10 8 5 5 7 9 11 12 9 8 10 7 4 4 4 4 4 3 4 3 3 3 4 4
3 3 3 4 4 4 3 3 4 4 4 5 5 6 6 5 5 5 4 5 6 5 5 6 9 10 8 8 7 6 4 4 4 4 4 3 2 2 2 2 3 3 3
4 4 4 4 4 5 4 4 4 4 4 4 5 5 5 6 7 8 5 4 4 4 3 3 3 4 5 5 5 4 4 3 3 3 4 3 3 3 3 2 3 3 4
5 4 4 4 4 4 4 5 6 5 7 5 5 4 4 7 8 7 8 8 6 3 1 3 4 5 5 6 6 5 4 4 4 4 4 4 4 4 3 3 3 4 5
5 4 4 4 4 5 4 4 6 7 9 10 11 11 9 8 7 5 4 3 2 2 1 4 5 5 6 6 6 5 5 5 4 4 4 4 4 4 4 4 4 4 5
5 6 5 4 4 4 5 4 4 5 6 7 9 13 14 12 9 6 3 3 3 2 2 4 6 6 6 6 6 5 6 5 4 4 4 4 4 4 4 4 4 5 4
5 4 4 4 4 5 5 5 5 6 5 6 7 10 13 11 11 11 7 5 4 5 5 5 6 6 6 6 6 6 6 5 5 5 5 5 5 5 5 5 5 6 5
5 9 7 5 5 6 6 6 6 6 7 7 8 8 8 9 9 9 8 6 6 6 7 7 7 7 7 7 7 6 6 5 5 5 5 5 5 5 6 7 6 6 6
4 6 9 7 5 5 5 6 6 6 6 7 7 9 11 8 8 8 8 8 7 8 8 8 8 8 8 8 7 7 7 6 6 6 6 6 5 6 6 6 7 7 6
4 4 4 4 4 5 5 5 5 5 6 6 5 7 10 7 7 7 7 7 6 6 6 6 6 7 7 8 9 9 9 9 9 9 9 8 7 7 6 6 7 7 7
4 4 4 3 3 5 5 4 4 4 4 4 4 5 5 5 5 5 5 5 5 5 5 5 6 6 6 5 6 7 8 9 9 10 10 10 9 8 7 8 8 8 9
3 3 3 2 3 3 3 3 3 3 3 3 4 4 4 4 4 4 4 4 4 4 4 4 4 6 7 6 4 5 5 7 8 8 11 10 11 10 9 8 9 10 10
3 2 2 1 1 1 2 2 3 3 3 3 3 3 4 4 4 4 5 5 5 5 6 5 4 5 7 7 6 6 9 10 11 10 9 9 10 11 11 10 9 9 10
2 1 1 0 0 0 1 1 2 3 3 3 3 3 4 4 4 5 5 5 6 6 6 6 7 8 9 8 9 10 12 12 12 12 9 8 9 10 11 10 12 10 10
Wind_Direction
200 205 204 226 232 231 242 269 279 303 320 330 332 339 339 340 340 344 330 322 323 316 317 309 295 283 266 252 236 222 216 214 242 258 240 238 228 239 237 225 219 212 214
201 201 207 212 206 218 247 268 281 304 316 323 331 336 329 331 332 330 323 327 320 314 310 311 303 300 283 261 242 237 229 221 227 248 249 232 229 229 225 223 222 216 212
197 198 206 213 209 222 240 260 283 298 313 323 324 323 314 314 317 309 307 311 312 309 306 303 299 301 292 279 258 244 240 239 226 234 247 233 233 225 223 228 224 220 216
193 194 204 216 213 216 224 240 257 274 291 302 300 298 294 299 301 295 301 304 307 306 303 298 294 284 275 274 266 251 243 241 236 238 246 243 236 224 208 217 226 218 220
187 198 212 216 212 211 223 238 255 272 278 283 292 297 297 291 279 276 283 291 301 306 307 303 298 294 287 277 266 253 241 241 240 241 245 244 237 217 217 208 223 221 219
190 205 211 210 211 217 228 237 254 268 278 284 288 288 292 288 292 289 279 277 291 298 302 304 303 297 305 308 301 289 260 238 234 236 242 241 240 227 221 216 217 216 228
199 210 212 211 217 226 231 234 247 254 261 274 280 278 278 282 288 292 287 276 282 289 294 300 306 310 315 303 302 303 294 275 249 231 239 243 238 224 213 219 219 213 219
205 215 216 214 222 229 230 240 247 246 253 261 268 270 272 281 286 289 288 282 283 291 293 294 294 300 302 301 295 293 286 279 266 250 240 246 242 230 218 219 215 216 231
214 222 223 217 222 229 234 243 244 244 253 255 259 263 265 277 282 281 277 272 284 295 299 300 298 294 301 308 302 298 298 291 275 265 256 252 248 242 221 207 200 203 223
229 231 230 219 218 227 235 241 241 237 249 260 265 261 256 264 274 274 263 241 273 288 299 302 304 304 307 309 294 290 293 292 290 292 282 269 255 245 223 212 206 207 206
238 236 237 232 231 235 241 244 245 248 257 263 269 272 264 260 269 267 251 219 238 268 285 295 300 309 311 309 301 275 271 280 280 278 277 267 252 236 226 219 212 208 211
216 231 257 261 259 257 251 261 259 255 262 268 271 281 276 266 259 260 250 235 226 235 261 274 286 304 307 307 303 289 288 288 275 274 272 265 253 242 230 217 215 218 222
63 321 304 306 299 292 277 278 282 269 260 268 267 272 280 277 267 257 254 247 240 234 252 268 286 300 309 305 300 304 304 288 276 269 267 263 252 240 225 207 206 213 224
52 6 351 343 328 321 308 291 286 282 275 274 272 271 276 279 271 260 252 252 251 256 268 285 298 302 301 292 297 303 294 280 275 268 268 269 260 241 232 221 218 208 217
50 25 5 354 340 331 324 303 291 275 262 264 269 263 270 283 272 244 223 225 223 237 264 297 306 313 317 313 305 297 292 292 282 270 267 267 263 260 252 227 217 213 220
51 24 6 354 345 340 334 333 326 323 332 339 335 315 279 275 291 274 238 230 226 222 220 283 295 296 293 295 298 299 290 282 275 272 266 256 253 249 251 237 222 225 228
57 29 13 8 4 357 354 352 346 345 358 8 5 359 349 333 320 298 257 230 223 176 253 284 289 290 290 289 287 283 282 278 271 270 268 260 252 249 246 243 237 232 226
50 40 37 18 9 7 5 4 6 8 8 3 359 4 6 4 3 360 12 54 11 5 297 293 295 295 292 291 290 286 283 281 272 268 265 259 251 246 247 244 239 236 227
49 40 36 27 22 20 18 21 24 23 21 11 9 9 9 14 28 32 44 37 7 354 344 330 320 315 310 304 298 291 285 281 275 270 264 256 253 245 246 244 238 231 229
46 53 59 46 33 30 29 31 30 28 27 27 24 14 11 29 35 29 29 23 15 2 352 345 340 337 335 328 321 313 304 296 289 278 273 267 260 251 247 243 237 232 231
55 50 56 52 42 38 37 36 34 36 34 32 26 20 27 37 34 27 25 23 18 12 6 4 3 358 355 351 345 340 336 332 325 312 295 280 266 259 255 248 240 234 231
69 62 53 52 45 43 42 37 37 38 34 32 19 21 30 37 34 30 25 18 14 9 2 0 2 0 0 4 3 1 360 354 345 334 322 305 287 270 259 253 247 238 233
75 68 59 49 48 44 44 34 32 31 27 23 19 20 22 24 22 17 12 4 0 0 357 359 1 1 1 5 10 12 6 355 344 338 332 321 308 289 271 258 251 243 235
77 73 68 52 47 46 37 23 15 12 13 9 8 7 4 1 356 351 345 337 337 337 338 341 345 348 352 354 359 4 1 351 346 338 332 325 320 309 293 274 260 250 243
76 72 73 69 54 39 19 5 353 345 345 343 341 338 334 333 330 327 324 321 321 320 320 318 313 317 321 324 327 330 332 338 345 343 332 326 321 318 312 297 282 268 254
77 77 86 101 70 337 335 331 326 326 322 320 320 318 317 315 311 310 312 312 313 309 308 305 303 303 305 307 307 310 314 320 327 332 331 324 320 315 316 309 297 283 269
Height
1510 1509 1508 1506 1505 1503 1501 1499 1497 1495 1493 1491 1489 1487 1485 1484 1482 1480 1479 1477 1476 1476 1475 1475 1475 1475 1475 1475 1476 1476 1477 1478 1478 1479 1481 1482 1484 1485 1487 1489 1491 1494 1496
1509 1508 1506 1505 1503 1502 1500 1498 1496 1494 1492 1490 1488 1486 1484 1482 1481 1479 1477 1475 1474 1473 1472 1472 1472 1471 1471 1471 1471 1472 1472 1473 1474 1474 1475 1477 1479 1480 1482 1483 1485 1487 1490
1507 1506 1505 1504 1502 1500 1499 1497 1495 1493 1491 1489 1487 1485 1483 1481 1479 1477 1475 1474 1472 1471 1470 1469 1468 1468 1468 1467 1467 1468 1468 1469 1470 1470 1470 1472 1473 1475 1476 1477 1479 1481 1483
1506 1505 1504 1503 1501 1499 1497 1496 1494 1492 1490 1488 1486 1484 1482 1480 1478 1476 1474 1472 1470 1468 1467 1466 1465 1465 1464 1464 1464 1464 1464 1465 1465 1465 1466 1467 1468 1470 1471 1472 1473 1475 1477
1504 1503 1502 1501 1500 1498 1496 1495 1493 1491 1489 1487 1485 1483 1481 1478 1476 1474 1472 1470 1468 1466 1465 1463 1462 1462 1461 1461 1460 1460 1460 1460 1461 1461 1461 1462 1463 1464 1466 1467 1468 1470 1471
1502 1502 1501 1500 1499 1497 1496 1494 1492 1490 1488 1486 1484 1482 1479 1477 1475 1473 1471 1468 1466 1464 1462 1461 1460 1459 1458 1457 1457 1457 1457 1456 1456 1456 1457 1457 1458 1460 1461 1462 1463 1464 1465
1500 1500 1499 1498 1497 1496 1494 1493 1491 1489 1487 1485 1483 1481 1478 1476 1474 1472 1469 1467 1465 1463 1461 1459 1457 1456 1455 1454 1453 1453 1452 1452 1452 1452 1452 1452 1453 1455 1456 1457 1458 1458 1460
1498 1498 1497 1497 1495 1494 1493 1491 1489 1487 1485 1483 1481 1479 1477 1475 1473 1470 1468 1466 1463 1461 1459 1457 1455 1453 1452 1451 1449 1449 1448 1448 1448 1447 1447 1448 1448 1449 1450 1451 1452 1453 1455
1496 1496 1495 1494 1493 1492 1491 1489 1487 1485 1484 1482 1480 1477 1475 1473 1471 1469 1466 1464 1462 1460 1458 1455 1453 1451 1450 1448 1447 1445 1444 1443 1443 1443 1443 1443 1443 1444 1445 1446 1447 1448 1448
1494 1493 1492 1492 1490 1489 1488 1486 1485 1483 1481 1479 1477 1475 1473 1471 1469 1467 1465 1462 1460 1458 1456 1454 1452 1449 1448 1446 1444 1442 1441 1440 1439 1438 1438 1438 1438 1438 1439 1440 1441 1442 1443
1491 1490 1490 1488 1487 1486 1485 1483 1482 1480 1478 1476 1474 1473 1471 1469 1466 1464 1462 1460 1458 1456 1453 1451 1450 1448 1445 1444 1442 1440 1438 1437 1435 1434 1433 1433 1433 1433 1434 1435 1436 1437 1438
1488 1487 1486 1485 1484 1482 1481 1479 1478 1476 1474 1472 1471 1469 1467 1466 1464 1461 1460 1458 1455 1453 1451 1449 1447 1445 1443 1441 1439 1437 1436 1434 1432 1431 1430 1429 1429 1429 1429 1430 1431 1432 1433
1484 1483 1482 1481 1480 1478 1477 1475 1473 1472 1470 1468 1466 1464 1463 1462 1460 1458 1456 1454 1453 1451 1449 1447 1445 1443 1441 1439 1437 1435 1433 1432 1430 1428 1427 1426 1426 1426 1426 1426 1426 1427 1428
1481 1480 1478 1477 1475 1474 1472 1471 1469 1467 1465 1464 1462 1460 1459 1457 1456 1454 1453 1451 1450 1448 1446 1444 1443 1441 1439 1437 1435 1433 1431 1429 1428 1426 1425 1424 1423 1423 1423 1423 1422 1423 1423
1477 1476 1474 1473 1471 1469 1468 1466 1464 1463 1461 1459 1458 1456 1455 1453 1452 1451 1449 1448 1446 1445 1443 1442 1440 1438 1436 1434 1433 1431 1429 1427 1426 1424 1423 1422 1421 1420 1420 1420 1419 1419 1419
1473 1472 1470 1469 1467 1465 1464 1462 1461 1460 1458 1456 1454 1452 1451 1450 1448 1447 1446 1445 1443 1442 1441 1439 1437 1436 1434 1432 1430 1428 1427 1425 1423 1422 1420 1419 1418 1418 1417 1416 1416 1416 1415
1470 1468 1467 1465 1464 1462 1460 1458 1457 1456 1454 1452 1450 1449 1447 1446 1444 1443 1442 1441 1440 1439 1438 1436 1435 1433 1431 1429 1428 1426 1424 1423 1421 1419 1418 1417 1416 1415 1414 1413 1412 1412 1412
1467 1466 1464 1463 1461 1460 1458 1456 1454 1452 1451 1449 1448 1446 1444 1443 1441 1440 1439 1438 1437 1436 1435 1434 1432 1430 1429 1427 1425 1423 1422 1420 1419 1417 1416 1414 1413 1412 1411 1410 1409 1409 1408
1465 1464 1462 1461 1459 1458 1456 1455 1453 1451 1449 1447 1446 1444 1442 1441 1439 1437 1436 1435 1434 1433 1432 1431 1429 1427 1425 1424 1422 1421 1419 1417 1416 1414 1413 1412 1410 1409 1408 1407 1407 1406 1406
1463 1462 1461 1460 1458 1457 1455 1454 1452 1450 1448 1446 1444 1443 1441 1439 1437 1435 1434 1433 1432 1431 1429 1428 1426 1424 1422 1421 1419 1417 1416 1414 1412 1411 1410 1408 1407 1406 1405 1404 1403 1403 1402
1462 1461 1460 1459 1458 1457 1455 1453 1452 1450 1448 1447 1445 1443 1441 1439 1437 1436 1434 1432 1431 1429 1427 1425 1423 1421 1419 1417 1415 1414 1412 1410 1409 1407 1406 1404 1403 1402 1401 1400 1400 1399 1399
1461 1460 1460 1459 1458 1456 1455 1454 1452 1451 1449 1447 1445 1443 1441 1439 1437 1436 1434 1432 1430 1428 1426 1424 1422 1419 1417 1414 1412 1410 1408 1406 1404 1402 1401 1399 1398 1397 1396 1395 1395 1395 1394
1460 1459 1459 1458 1457 1456 1455 1454 1452 1451 1449 1447 1445 1443 1441 1439 1437 1435 1433 1431 1429 1427 1425 1422 1420 1417 1415 1412 1410 1407 1405 1402 1400 1398 1396 1394 1393 1392 1391 1390 1390 1389 1389
1459 1458 1458 1457 1457 1456 1454 1453 1452 1450 1448 1447 1445 1443 1441 1438 1436 1434 1432 1430 1427 1425 1423 1420 1417 1415 1412 1409 1407 1404 1401 1398 1396 1394 1391 1389 1387 1386 1385 1384 1383 1383 1383
1457 1457 1457 1456 1455 1454 1453 1452 1450 1449 1447 1445 1443 1441 1439 1437 1435 1432 1430 1427 1425 1422 1419 1417 1414 1411 1408 1406 1403 1400 1397 1394 1392 1389 1386 1384 1381 1380 1378 1377 1376 1376 1375
1456 1455 1455 1455 1454 1453 1451 1450 1449 1447 1445 1443 1441 1439 1437 1434 1432 1429 1426 1424 1421 1418 1415 1412 1410 1407 1404 1401 1398 1395 1392 1389 1386 1383 1380 1377 1375 1373 1371 1369 1368 1368 1367